NKS283 KLAS-KLAX

Flight info

Callsign NKS283
Flight time 0h 46m
Altitude 28000
Route RADYR2 BLAQQ SHTNR ANJLL4
Aircraft A320/M-SDE3FGHIRWY/LB1

Departure

Time 2026-05-04 16:41
Airport Harry Reid International Airport (KLAS)

Arrival

Time 2026-05-04 17:27
Airport Los Angeles International Airport (KLAX)
Time Latitude Longitude Altitude Speed Heading
2026-05-04 16:14 36.08492 -115.15401 2188 ft 0 kts 335°
2026-05-04 16:33 36.08480 -115.15394 2190 ft 4 kts 339°
2026-05-04 16:33 36.08433 -115.15376 2190 ft 4 kts 347°
2026-05-04 16:34 36.08399 -115.15384 2190 ft 1 kts 245°
2026-05-04 16:34 36.08399 -115.15383 2190 ft 0 kts 245°
2026-05-04 16:37 36.08353 -115.15506 2188 ft 12 kts 245°
2026-05-04 16:37 36.08352 -115.15607 2191 ft 14 kts 322°
2026-05-04 16:37 36.08548 -115.15721 2188 ft 15 kts 335°
2026-05-04 16:38 36.08750 -115.15768 2190 ft 17 kts 24°
2026-05-04 16:39 36.09112 -115.15561 2191 ft 21 kts 25°
2026-05-04 16:39 36.09389 -115.15402 2188 ft 23 kts 24°
2026-05-04 16:40 36.09676 -115.15274 2190 ft 18 kts 330°
2026-05-04 16:40 36.09606 -115.15502 2194 ft 17 kts 203°
2026-05-04 16:41 36.08890 -115.15911 2192 ft 114 kts 206°
2026-05-04 16:41 36.06059 -115.17473 3510 ft 164 kts 203°
2026-05-04 16:42 36.02433 -115.19669 4561 ft 227 kts 205°
2026-05-04 16:43 35.99269 -115.21579 5588 ft 270 kts 201°
2026-05-04 16:43 35.95791 -115.23204 7608 ft 271 kts 198°
2026-05-04 16:43 35.94000 -115.23964 8578 ft 273 kts 198°
2026-05-04 16:44 35.86422 -115.27254 11197 ft 318 kts 199°
2026-05-04 16:45 35.82210 -115.29155 12780 ft 325 kts 199°
2026-05-04 16:46 35.75766 -115.32078 14986 ft 333 kts 200°
2026-05-04 16:46 35.71380 -115.34062 16365 ft 338 kts 200°
2026-05-04 16:47 35.66917 -115.36074 17722 ft 345 kts 201°
2026-05-04 16:47 35.62363 -115.38086 18975 ft 351 kts 198°
2026-05-04 16:48 35.54952 -115.38380 20892 ft 362 kts 181°
2026-05-04 16:48 35.52426 -115.38191 21489 ft 364 kts 181°
2026-05-04 16:49 35.47347 -115.37815 22639 ft 368 kts 183°
2026-05-04 16:49 35.42384 -115.38795 23714 ft 360 kts 205°
2026-05-04 16:50 35.37927 -115.41563 24686 ft 360 kts 211°
2026-05-04 16:50 35.33471 -115.44420 25672 ft 362 kts 211°
2026-05-04 16:51 35.29016 -115.47256 26641 ft 364 kts 212°
2026-05-04 16:51 35.26766 -115.48686 27108 ft 365 kts 212°
2026-05-04 16:51 35.22243 -115.51565 27980 ft 368 kts 212°
2026-05-04 16:52 35.17788 -115.54395 28080 ft 352 kts 213°
2026-05-04 16:53 35.11595 -115.58924 28084 ft 340 kts 226°
2026-05-04 16:54 35.05069 -115.67258 28082 ft 339 kts 228°
2026-05-04 16:55 34.95298 -115.79725 28078 ft 338 kts 228°
2026-05-04 16:56 34.87712 -115.89358 28070 ft 337 kts 229°
2026-05-04 16:57 34.82837 -115.95540 28061 ft 337 kts 229°
2026-05-04 16:58 34.76338 -116.03770 28050 ft 337 kts 229°
2026-05-04 17:00 34.66642 -116.16118 28043 ft 336 kts 229°
2026-05-04 17:01 34.58603 -116.26332 28070 ft 335 kts 229°
2026-05-04 17:02 34.52144 -116.34495 28083 ft 335 kts 229°
2026-05-04 17:03 34.47301 -116.40605 28082 ft 335 kts 229°
2026-05-04 17:03 34.42476 -116.46718 27961 ft 333 kts 232°
2026-05-04 17:04 34.40124 -116.51498 27943 ft 331 kts 243°
2026-05-04 17:04 34.38080 -116.56491 27925 ft 331 kts 243°
2026-05-04 17:05 34.36019 -116.61491 27920 ft 331 kts 243°
2026-05-04 17:05 34.33955 -116.66468 27923 ft 331 kts 243°
2026-05-04 17:06 34.31941 -116.71386 27567 ft 325 kts 243°
2026-05-04 17:06 34.30959 -116.73838 27316 ft 323 kts 244°
2026-05-04 17:07 34.29011 -116.78717 26810 ft 321 kts 243°
2026-05-04 17:07 34.28351 -116.80361 26649 ft 321 kts 243°
2026-05-04 17:07 34.27059 -116.83561 26323 ft 320 kts 243°
2026-05-04 17:07 34.26082 -116.85977 26083 ft 319 kts 243°
2026-05-04 17:08 34.25112 -116.88373 25775 ft 315 kts 243°
2026-05-04 17:08 34.23206 -116.93089 24963 ft 310 kts 242°
2026-05-04 17:08 34.22265 -116.95419 24551 ft 307 kts 242°
2026-05-04 17:09 34.21334 -116.97736 24143 ft 305 kts 243°
2026-05-04 17:09 34.20602 -117.00151 23703 ft 309 kts 248°
2026-05-04 17:09 34.19931 -117.02637 23159 ft 312 kts 248°
2026-05-04 17:10 34.18581 -117.07648 22206 ft 312 kts 248°
2026-05-04 17:10 34.16555 -117.15134 20798 ft 312 kts 248°
2026-05-04 17:11 34.15876 -117.17628 20323 ft 313 kts 248°
2026-05-04 17:11 34.15196 -117.20118 19846 ft 312 kts 248°
2026-05-04 17:11 34.13823 -117.25101 18886 ft 313 kts 248°
2026-05-04 17:12 34.13133 -117.27592 18410 ft 313 kts 248°
2026-05-04 17:12 34.11750 -117.32591 17321 ft 314 kts 248°
2026-05-04 17:13 34.09725 -117.40041 15875 ft 313 kts 249°
2026-05-04 17:14 34.07860 -117.47599 14433 ft 315 kts 250°
2026-05-04 17:14 34.07268 -117.50150 13954 ft 317 kts 255°
2026-05-04 17:14 34.06509 -117.55412 12950 ft 318 kts 256°
2026-05-04 17:15 34.06125 -117.58038 12471 ft 317 kts 256°
2026-05-04 17:15 34.05493 -117.62299 11688 ft 317 kts 256°
2026-05-04 17:16 34.05179 -117.64423 11360 ft 315 kts 256°
2026-05-04 17:16 34.04381 -117.71763 10096 ft 298 kts 255°
2026-05-04 17:17 34.03957 -117.74156 9711 ft 286 kts 253°
2026-05-04 17:17 34.02722 -117.81161 8944 ft 286 kts 256°
2026-05-04 17:18 34.02350 -117.83507 8623 ft 284 kts 256°
2026-05-04 17:18 34.01644 -117.88155 7643 ft 281 kts 257°
2026-05-04 17:19 34.00955 -117.92757 6708 ft 277 kts 257°
2026-05-04 17:19 34.00274 -117.97293 5645 ft 274 kts 258°
2026-05-04 17:20 33.99622 -118.01636 5135 ft 254 kts 258°
2026-05-04 17:20 33.99002 -118.05743 4907 ft 244 kts 258°
2026-05-04 17:20 33.98720 -118.07605 4795 ft 237 kts 256°
2026-05-04 17:21 33.98125 -118.11331 4597 ft 216 kts 261°
2026-05-04 17:21 33.97774 -118.14798 4314 ft 205 kts 262°
2026-05-04 17:22 33.97608 -118.16471 4070 ft 197 kts 262°
2026-05-04 17:22 33.97447 -118.18072 3809 ft 190 kts 262°
2026-05-04 17:23 33.96996 -118.22562 3085 ft 171 kts 262°
2026-05-04 17:23 33.96855 -118.23965 2871 ft 165 kts 262°
2026-05-04 17:23 33.96604 -118.26467 2455 ft 138 kts 261°
2026-05-04 17:24 33.96490 -118.27590 2266 ft 135 kts 262°
2026-05-04 17:24 33.96148 -118.30908 1752 ft 132 kts 262°
2026-05-04 17:25 33.96034 -118.32005 1555 ft 131 kts 262°
2026-05-04 17:25 33.95822 -118.34176 1174 ft 130 kts 263°
2026-05-04 17:26 33.95602 -118.36320 828 ft 129 kts 263°
2026-05-04 17:26 33.95284 -118.39469 260 ft 123 kts 263°
2026-05-04 17:27 33.95102 -118.41261 106 ft 53 kts 263°
2026-05-04 17:27 33.95028 -118.41941 107 ft 26 kts 262°
2026-05-04 17:28 33.94899 -118.42240 104 ft 10 kts 223°
2026-05-04 17:29 33.94688 -118.42192 98 ft 19 kts 84°
2026-05-04 17:29 33.94733 -118.41734 98 ft 20 kts 83°
2026-05-04 17:30 33.94792 -118.41288 100 ft 20 kts 82°
2026-05-04 17:31 33.94825 -118.40957 100 ft 17 kts 82°
2026-05-04 17:31 33.94704 -118.40826 96 ft 3 kts 151°
2026-05-04 17:32 33.94695 -118.40820 97 ft 0 kts 151°